TimeEST,TemperatureF,Dew PointF,Humidity,Sea Level PressureIn,VisibilityMPH,Wind Direction,Wind SpeedMPH,Gust SpeedMPH,PrecipitationIn,Events,Conditions,WindDirDegrees,DateUTC
12:53 AM,19.0,15.1,85,29.93,10.0,WSW,5.8,-,N/A,,Clear,250,2013-02-24 05:53:00
1:53 AM,19.0,15.1,85,29.94,9.0,WSW,5.8,-,N/A,,Scattered Clouds,250,2013-02-24 06:53:00
2:53 AM,21.9,18.0,85,29.95,4.0,West,6.9,-,0.00,Snow,Light Snow,260,2013-02-24 07:53:00
3:53 AM,21.9,18.0,85,29.95,5.0,WSW,6.9,-,0.00,Snow,Light Snow,250,2013-02-24 08:53:00
4:53 AM,18.0,15.1,88,29.96,6.0,WSW,4.6,-,0.00,,Mostly Cloudy,240,2013-02-24 09:53:00
5:53 AM,21.0,18.0,88,29.97,6.0,West,4.6,-,N/A,,Overcast,260,2013-02-24 10:53:00
6:53 AM,19.0,17.1,92,29.99,6.0,WSW,4.6,-,N/A,,Overcast,250,2013-02-24 11:53:00
7:53 AM,14.0,12.0,92,30.01,3.0,WSW,3.5,-,N/A,,Clear,240,2013-02-24 12:53:00
8:53 AM,25.0,19.9,81,30.02,7.0,WSW,8.1,-,N/A,,Mostly Cloudy,250,2013-02-24 13:53:00
9:53 AM,28.9,21.9,75,30.02,7.0,West,13.8,-,N/A,,Overcast,270,2013-02-24 14:53:00
10:53 AM,30.0,23.0,75,30.03,10.0,West,12.7,-,N/A,,Overcast,280,2013-02-24 15:53:00
11:12 AM,30.2,23.0,75,30.01,10.0,WNW,15.0,-,N/A,,Overcast,290,2013-02-24 16:12:00
11:53 AM,33.1,24.1,70,30.04,10.0,WNW,17.3,-,N/A,,Mostly Cloudy,290,2013-02-24 16:53:00
12:44 PM,33.8,23.0,65,30.01,10.0,West,15.0,-,N/A,,Overcast,280,2013-02-24 17:44:00
12:53 PM,35.1,21.9,59,30.05,10.0,WNW,12.7,-,N/A,,Overcast,300,2013-02-24 17:53:00
1:53 PM,36.0,24.1,62,30.05,10.0,WNW,10.4,-,N/A,,Overcast,300,2013-02-24 18:53:00
2:53 PM,34.0,24.1,67,30.06,10.0,WNW,13.8,-,N/A,,Overcast,290,2013-02-24 19:53:00
3:53 PM,34.0,25.0,70,30.08,10.0,West,8.1,-,0.00,,Overcast,260,2013-02-24 20:53:00
4:53 PM,35.1,26.1,70,30.09,10.0,West,8.1,-,N/A,,Overcast,280,2013-02-24 21:53:00
5:53 PM,34.0,26.1,73,30.11,10.0,West,4.6,-,N/A,,Overcast,280,2013-02-24 22:53:00
6:53 PM,33.1,26.1,75,30.13,10.0,West,6.9,-,N/A,,Overcast,280,2013-02-24 23:53:00
7:53 PM,30.9,25.0,79,30.16,10.0,WSW,3.5,-,N/A,,Overcast,250,2013-02-25 00:53:00
8:53 PM,28.9,24.1,82,30.16,10.0,West,3.5,-,N/A,,Partly Cloudy,260,2013-02-25 01:53:00
9:53 PM,26.1,23.0,88,30.17,10.0,WSW,4.6,-,N/A,,Clear,250,2013-02-25 02:53:00
10:53 PM,21.9,19.0,89,30.17,8.0,Calm,Calm,-,N/A,,Clear,0,2013-02-25 03:53:00
11:53 PM,21.0,19.0,92,30.17,7.0,Calm,Calm,-,N/A,,Mostly Cloudy,0,2013-02-25 04:53:00